Powrót do katalogu

AL-AMAL

HOPE

AktywnyNaukaVLEO
NORAD 45918·PAYLOAD·🇦🇪 UAE

Wystrzelony Jul 19, 2020 z Tanegashima Space Center

Loading…

Następne Przeloty (najbliższe 24 godziny)

TLE

NieaktualneSource: Space-Track

Epoka: Jul 19, 2020, 22:09 UTC

1 45918U 20047A   20201.92332176 +.00001484 -46927-5 +00000-0 0  9999
2 45918 030.3470 309.5833 0007500 293.9000 179.9000 16.12219793000009

Śledź AL-AMAL w czasie rzeczywistym z AllMySat

Download on the App Store